Regional Weather Roundup
Issued by NWS

Home | Current Version | Previous Version | Graphics & Text | Print | Product List | Glossary On
Versions: 1 2 3 4 5 6 7 8 9 10 11 12 13 14 15 16 17 18 19 20 21 22 23 24 25 26 27 28 29 30 31 32 33 34 35 36 37 38 39 40 41 42 43 44 45 46 47 48 49 50
000
ASUS43 KDTX 040601
RWRMI
MICHIGAN HOURLY REGIONAL WEATHER ROUNDUP
NATIONAL WEATHER SERVICE DETROIT/PONTIAC MI
200 AM EDT MON MAY 04 2015

NOTE: "FAIR" INDICATES FEW OR NO CLOUDS BELOW 12,000 FEET WITH NO
SIGNIFICANT WEATHER AND/OR OBSTRUCTION TO VISIBILITY.

MIZ047>049-052>055-059>063-066>070-074>076-081>083-040700-
SOUTHEAST LOWER MICHIGAN

CITY           SKY/WX    TMP DP  RH WIND       PRES   REMARKS
ADRIAN         CLOUDY    64  48  56 S7        30.04S
6HR MIN TEMP:  64; 6HR MAX TEMP:  73;

ALMA           MOCLDY    62  47  58 S3        29.96F
ANN ARBOR      MOCLDY    62  47  57 S5        30.03S
BAD AXE        CLOUDY    65  45  46 S8        29.98F
CARO           MOCLDY    68  47  47 CALM      29.97F
DETROIT CITY   CLOUDY    67  47  48 S8        30.04R
6HR MIN TEMP:  63; 6HR MAX TEMP:  74;

DETROIT        CLOUDY    65  48  54 S6        30.04S
6HR MIN TEMP:  62; 6HR MAX TEMP:  77;

FLINT          CLOUDY    70  46  42 S8        30.00F
6HR MIN TEMP:  69; 6HR MAX TEMP:  76;

GROSSE ILE     CLOUDY    61  54  77 S8        30.03S
HILLSDALE      MOCLDY    66  47  49 S8        30.03F
6HR MIN TEMP:  66; 6HR MAX TEMP:  74;

HOWELL         PTCLDY    66  45  45 S9        30.01F
6HR MIN TEMP:  66; 6HR MAX TEMP:  73;


CITY           SKY/WX    TMP DP  RH WIND       PRES   REMARKS
JACKSON        CLOUDY    68  47  46 S10       30.01F
6HR MIN TEMP:  66; 6HR MAX TEMP:  74;

LAMBERTVILLE   MOCLDY    66  46  48 S5        30.05R
LANSING        MOCLDY    66  47  50 S8        29.99F
6HR MIN TEMP:  65; 6HR MAX TEMP:  74;

LAPEER         MOCLDY    67  45  45 S7        30.01F
MASON          CLOUDY    64  47  53 CALM      30.00F
MONROE         MOCLDY    64  48  55 S5        30.03S
PONTIAC        CLOUDY    68  46  45 S8        30.02S
6HR MIN TEMP:  67; 6HR MAX TEMP:  75;

PORT HOPE        N/A     68  44  42 VRB6      29.95F
6HR MIN TEMP:  68; 6HR MAX TEMP:  76;

PORT HURON     MOCLDY    57  48  72 S5        30.03S
TRI CITIES     MOCLDY    70  47  43 SW9       29.97F
6HR MIN TEMP:  70; 6HR MAX TEMP:  77;

MIDLAND        FAIR      69  46  43 S8        29.95F
TROY           CLOUDY    69  45  41 SW7       30.05S
SAGINAW HB     MOCLDY    68  45  42 S13       29.96F
$$
MIZ043>046-050>051-056>058-064>065-071>073-077>080-040700-
SOUTHWEST LOWER MICHIGAN

CITY           SKY/WX    TMP DP  RH WIND       PRES   REMARKS
BATTLE CREEK   CLOUDY    68  47  46 S13       30.00S
6HR MIN TEMP:  67; 6HR MAX TEMP:  74; 6HR PCP: TRACE;

BENTON HARBOR  CLOUDY    61  54  77 NE5       29.96S
6HR MIN TEMP:  60; 6HR MAX TEMP:  75; 6HR PCP:  0.06;

BIG RAPIDS     MOCLDY    61  46  57 S3        29.92F
6HR MIN TEMP:  58; 6HR MAX TEMP:  74;

COLDWATER      CLOUDY    67  44  44 S6        30.01S
6HR MIN TEMP:  67; 6HR MAX TEMP:  73;

FREMONT        CLOUDY    61  46  56 S9        29.93S
HOLLAND        LGT RAIN  63  53  70 S14       29.98R
6HR MIN TEMP:  57; 6HR MAX TEMP:  74; 6HR PCP: TRACE;

GRAND RAPIDS   CLOUDY    64  48  56 SW10      29.97S
6HR MIN TEMP:  62; 6HR MAX TEMP:  73;

IONIA          FAIR      63  47  55 S7        29.96F
KALAMAZOO      CLOUDY    66  49  54 S8        30.00R
6HR MIN TEMP:  65; 6HR MAX TEMP:  72; 6HR PCP: TRACE;

LUDINGTON      CLOUDY    66  50  57 S7        29.89S
6HR MIN TEMP:  63; 6HR MAX TEMP:  72;

MARSHALL       CLOUDY    67  47  49 S10G16    29.99F
MOUNT PLEASANT MOCLDY    64  46  53 SE6       29.94F
6HR MIN TEMP:  64; 6HR MAX TEMP:  75;

MUSKEGON       HVY RAIN  61  53  75 S21       29.94R
6HR MIN TEMP:  55; 6HR MAX TEMP:  70; 6HR PCP:  0.04;

SOUTH HAVEN    LGT RAIN  62  54  74 S12       29.98F
$$
MIZ016>042-040700-
NORTHERN LOWER MICHIGAN

CITY           SKY/WX    TMP DP  RH WIND       PRES   REMARKS
ALPENA         CLOUDY    69  45  41 S10       29.90F
6HR MIN TEMP:  67; 6HR MAX TEMP:  78;

BEAVER ISLAND  RAIN      51  50  95 S8        29.86F
6HR MIN TEMP:  50; 6HR MAX TEMP:  69;

BELLAIRE       DRIZZLE   63  49  61 NW6       29.92S
6HR MIN TEMP:  61; 6HR MAX TEMP:  75;

CADILLAC       MOCLDY    58  46  63 SW5       29.93S
CHARLEVOIX     CLOUDY    55  47  76 W6        29.94F
FRANKFORT      CLOUDY    57  47  69 CALM      29.92F
GAYLORD        CLOUDY    65  46  50 W8        29.93R
6HR MIN TEMP:  63; 6HR MAX TEMP:  73; 6HR PCP: TRACE;

GRAYLING       CLOUDY    57  46  64 CALM      29.93F
HARBOR SPRINGS LGT RAIN  49  46  86 CALM      29.92F
HOUGHTON LAKE    N/A     62  45  53 S6        29.92F
6HR MIN TEMP:  60; 6HR MAX TEMP:  71;

MANISTEE       CLOUDY    61  50  67 NW3       29.92R
OSCODA         MOCLDY    64  47  53 S7        29.92F
PELLSTON       LGT RAIN  57  50  77 SW6       29.91F
6HR MIN TEMP:  56; 6HR MAX TEMP:  75; 6HR PCP: TRACE;

ROGERS CITY    CLOUDY    52  45  78 CALM      29.92R
TRAVERSE CITY  CLOUDY    67  51  56 W3        29.92R
6HR MIN TEMP:  66; 6HR MAX TEMP:  75;

$$
MIZ007>008-015-040700-
EASTERN UPPER MICHIGAN

CITY           SKY/WX    TMP DP  RH WIND       PRES   REMARKS
KINROSS        CLOUDY    57  57 100 S6        29.88F
6HR MIN TEMP:  55; 6HR MAX TEMP:  70;

MACKINAC ISLAN LGT RAIN  53  51  94 S9        29.89F
6HR MIN TEMP:  53; 6HR MAX TEMP:  63; 6HR PCP:  0.09;

NEWBERRY       CLOUDY    53  52  97 SW8       29.86F
S. S. MARIE    RAIN      59  56  89 S25G33    29.84F FOG
6HR MIN TEMP:  57; 6HR MAX TEMP:  70; 6HR PCP:  0.12;

MUNISING         N/A     60  56  86 SW8       29.84R
6HR MIN TEMP:  59; 6HR MAX TEMP:  63; 6HR PCP:  0.11;

$$
MIZ004>006-011>014-085-040700-
CENTRAL UPPER MICHIGAN

CITY           SKY/WX    TMP DP  RH WIND       PRES   REMARKS
MANISTIQUE     CLOUDY    45  44  95 S6        29.88R FOG
6HR MIN TEMP:  45; 6HR MAX TEMP:  52; 6HR PCP:  0.54;

ESCANABA       CLOUDY    59  55  88 NW8       29.83F
6HR MIN TEMP:  57; 6HR MAX TEMP:  64; 6HR PCP:  0.01;

MENOMINEE      CLOUDY    59  55  88 W3        29.89R
6HR MIN TEMP:  57; 6HR MAX TEMP:  73; 6HR PCP:  0.12;

SAWYER-GWINN   CLOUDY    56  54  93 NW5       29.86F
6HR MIN TEMP:  56; 6HR MAX TEMP:  60; 6HR PCP:  0.04;

$$
MIZ001>003-009>011-084-040700-
WESTERN UPPER MICHIGAN

CITY           SKY/WX    TMP DP  RH WIND       PRES   REMARKS
IRON MOUNTAIN  CLOUDY    55  53  93 S5        29.85F
6HR MIN TEMP:  55; 6HR MAX TEMP:  75; 6HR PCP:  0.38;

HOUGHTON       CLOUDY    54  36  50 NW7       29.89R
6HR MIN TEMP:  54; 6HR MAX TEMP:  63;

COPPER HARBOR    N/A     57  29  34 N13G22    29.86R
6HR MIN TEMP:  56; 6HR MAX TEMP:  67;

IRONWOOD       CLOUDY    48  46  93 W3        29.91R
6HR MIN TEMP:  48; 6HR MAX TEMP:  66;

$$

ABBREVIATIONS USED IN REMARKS
   TC - TEMPERATURE IN CELSIUS
  WCI - WIND CHILL INDEX
   HX - HEAT INDEX
  VSB - VISIBILITY



USA.gov is the U.S. government's official web portal to all federal, state and local government web resources and services.